Flag for Germany Weather past 2 weeks in Achim, Lower Saxony, Germany

Now
61 °F

Scattered clouds.


Feels Like: 61 °F
Forecast: 51 / 58 °F
Wind: 8 mph from West

Location: Bremen Airport

Current Time: Sep 23, 2014 at 2:52:33 PM

Latest Report: Sep 23, 2014 at 2:20 PM


Visibility: N/A

Pressure: 30.09 "Hg

Humidity: 55%

Dew point: 45 °F

Location of AchimLocation

Historic Weather in Achim — Graph

°F

Achim temperature yesterday

Maximum temperature yesterday: 61 °F (at 5:20 PM)
Minimum temperature yesterday: 50 °F (at 8:50 AM)
Average temperature yesterday: 56 °F

Past Weeks' High & Low Weather Summary

 TemperatureHumidityPressure
High77 °F (Sep 16, 3:50 PM)100% (Sep 10, 11:50 PM)30.24 "Hg (Sep 10, 11:50 PM)
Low43 °F (Sep 23, 3:20 AM)45% (Sep 22, 2:20 PM)29.86 "Hg (Sep 18, 3:20 PM)
Average61 °F80%30.04 "Hg
* Reported Sep 8 1:20 PM — Sep 23 1:50 PM, Achim, Weather by CustomWeather, © 2014

Note: Actual official high and low records may vary slightly from our data, if they occured in-between our weather recording intervals... More about our weather records

Advertising

Achim weather history for previous 24 hours

 ConditionsComfort  
Time TempWeatherWind HumidityBarometerVisibility
1:50 PM
Sep 23
61 °FScattered clouds.7 mph55%30.09 "HgN/A
1:20 PM61 °FBroken clouds.7 mph55%30.09 "HgN/A
12:50 PM61 °FBroken clouds.7 mph55%30.12 "HgN/A
12:20 PM61 °FScattered clouds.12 mph55%30.12 "HgN/A
11:50 AM61 °FScattered clouds.7 mph63%30.12 "HgN/A
11:20 AM59 °FPassing clouds.6 mph68%30.12 "HgN/A
10:50 AM57 °FPassing clouds.5 mph72%30.12 "HgN/A
10:20 AM54 °FScattered clouds.5 mph77%30.12 "HgN/A
9:50 AM52 °FPassing clouds.5 mph82%30.12 "HgN/A
9:20 AM48 °FPassing clouds.No wind94%30.12 "HgN/A
8:50 AM48 °FPassing clouds.No wind94%30.12 "HgN/A
8:20 AM46 °FPassing clouds.No wind93%30.12 "HgN/A
7:50 AM43 °FFog.No wind100%30.12 "HgN/A
7:20 AM43 °FFog.No wind93%30.12 "HgN/A
6:50 AM43 °FFog.No wind100%30.12 "HgN/A
6:20 AM43 °FFog.No wind93%30.12 "HgN/A
5:50 AM45 °FPassing clouds.No wind93%30.09 "HgN/A
5:20 AM45 °FPassing clouds.No wind93%30.09 "HgN/A
4:50 AM45 °FPassing clouds.No wind93%30.09 "HgN/A
4:20 AM46 °FPassing clouds.No wind93%30.09 "HgN/A
3:50 AM45 °FPassing clouds.1 mph100%30.12 "HgN/A
3:20 AM43 °FClear.5 mph93%30.12 "Hg10 mi
2:50 AM45 °FClear.6 mph87%30.12 "Hg10 mi
2:20 AM46 °FClear.5 mph87%30.09 "Hg10 mi
1:50 AM50 °FPassing clouds.5 mph82%30.12 "HgN/A
1:20 AM50 °FPassing clouds.6 mph82%30.09 "HgN/A
12:50 AM50 °FPassing clouds.6 mph82%30.09 "HgN/A
12:20 AM52 °FPassing clouds.7 mph77%30.09 "HgN/A
11:50 PM
Sep 22
54 °FPassing clouds.6 mph72%30.09 "HgN/A
11:20 PM55 °FPassing clouds.7 mph67%30.09 "HgN/A
10:50 PM54 °FPartly cloudy.9 mph77%30.09 "HgN/A
10:20 PM55 °FPartly cloudy.9 mph72%30.09 "HgN/A
9:50 PM57 °FPassing clouds.9 mph63%30.07 "HgN/A
9:20 PM57 °FClear.14 mph63%30.07 "Hg10 mi
8:50 PM57 °FClear.15 mph63%30.07 "Hg10 mi
8:20 PM57 °FPartly sunny.14 mph63%30.07 "HgN/A
7:50 PM57 °FPartly sunny.15 mph63%30.07 "HgN/A
7:20 PM57 °FPartly sunny.18 mph63%30.07 "HgN/A
6:50 PM59 °FPartly sunny.20 mph55%30.04 "HgN/A
6:20 PM59 °FPartly sunny.22 mph55%30.04 "HgN/A
5:50 PM59 °FPartly sunny.22 mph55%30.01 "HgN/A
5:20 PM61 °FScattered clouds.24 mph52%30.01 "HgN/A
4:50 PM59 °FScattered clouds.22 mph55%30.01 "HgN/A
4:20 PM59 °FPartly sunny.21 mph51%30.01 "HgN/A
3:50 PM59 °FPartly sunny.20 mph55%30.01 "HgN/A
3:20 PM59 °FPartly sunny.22 mph51%29.98 "HgN/A
2:50 PM59 °FPartly sunny.20 mph48%29.98 "HgN/A
2:20 PM59 °FPartly sunny.23 mph45%29.98 "HgN/A
Weather by CustomWeather, © 2014

See weather overviewHow to use our weather pages